Regional Weather Roundup
Issued by NWS Little Rock, AR

Home | Current Version | Previous Version | Graphics & Text | Print | Product List | Glossary On
Versions: 1 2 3 4 5 6 7 8 9 10 11 12 13 14 15 16 17 18 19 20 21 22 23 24 25 26 27
000
ASUS44 KLZK 241605
RWRLZK

WEATHER ROUNDUP FOR ARKANSAS
NATIONAL WEATHER SERVICE LITTLE ROCK AR
1100 AM CDT SUN JUL 24 2016

NOTE: "FAIR" INDICATES FEW OR NO CLOUDS BELOW 12,000 FEET WITH NO
SIGNIFICANT WEATHER AND/OR OBSTRUCTIONS TO VISIBILITY.

ARZ001-003-010-029-241700-
NORTHWEST ARKANSAS

CITY           SKY/WX    TMP DP  RH WIND       PRES   REMARKS
FAYETTEVILLE   SUNNY     88  76  67 VRB7      30.04R HX  99
FORT SMITH     SUNNY     90  69  50 VRB3      29.99R HX  94
HARRISON       SUNNY     90  74  59 NW6       30.04R HX  99
BENTONVILLE    SUNNY     88  72  58 W8        30.05R HX  94
ROGERS         SUNNY     89  75  63 W9        30.05R HX  99
SILOAM SPGS    SUNNY     90  70  51 SW9       30.05R HX  95
HIGHFILL       SUNNY     89  75  63 SW9       30.03R HX  99
SPRINGDALE     SUNNY     88  73  62 W9        30.06R HX  96
$$

ARZ004-005-016-241700-
NORTH CENTRAL ARKANSAS

CITY           SKY/WX    TMP DP  RH WIND       PRES   REMARKS
BATESVILLE     MOSUNNY   88  75  66 SE6       30.00R HX  97
FLIPPIN        SUNNY     88  73  62 SE3       29.99R HX  96
MTN HOME       SUNNY     88  75  65 VRB3      30.01R HX  97
$$

ARZ040-041-241700-
WEST CENTRAL ARKANSAS

CITY           SKY/WX    TMP DP  RH WIND       PRES   REMARKS
MENA           CLOUDY    86  73  66 CALM      30.03S HX  93
MOUNT IDA      CLOUDY    83  74  74 CALM      30.00R HX  89
$$

ARZ009-017-025-026-028-241700-
NORTHEAST ARKANSAS

CITY           SKY/WX    TMP DP  RH WIND       PRES   REMARKS
CORNING          N/A     86  77  74 S7        30.00R HX  97
JONESBORO      CLOUDY    85  77  77 S9        29.99S HX  95
NEWPORT        PTSUNNY   89  73  59 S8        30.00S HX  96
WALNUT RIDGE   CLOUDY    82  75  78 S9        29.99S HX  89
BLYTHEVILLE    CLOUDY    84  76  76 VRB7      30.01R HX  93
$$

ARZ022-023-033-042-044-241700-
CENTRAL ARKANSAS

CITY           SKY/WX    TMP DP  RH WIND       PRES   REMARKS
LITTLE ROCK    CLOUDY    89  75  63 SE6       30.00R HX  99
N LITTLE ROCK    N/A     86  74  69 CALM      29.97R HX  94
JACKSONVILLE   CLOUDY    87  75  66 VRB3      29.99R HX  97
SEARCY         MOSUNNY   87  77  72 SE6       30.01R HX  99
HOT SPRINGS    CLOUDY    84  73  69 SW6       30.01R HX  90
RUSSELLVILLE   CLOUDY    87  75  67 CALM      29.99R HX  96
$$

ARZ036-241700-
EAST ARKANSAS

CITY           SKY/WX    TMP DP  RH WIND       PRES   REMARKS
WEST MEMPHIS   CLOUDY    80  75  84 SW7       30.00R HX  85
$$

ARZ050-053-066-070-073-241700-
SOUTHWEST ARKANSAS

CITY           SKY/WX    TMP DP  RH WIND       PRES   REMARKS
CAMDEN         SUNNY     90  72  55 CALM      29.99S HX  96
TEXARKANA      MOSUNNY   85  75  72 CALM      30.00R HX  93
EL DORADO      SUNNY     89  76  65 W5        30.00R HX 100
DE QUEEN       PTSUNNY   86  75  69 NW3       29.98R HX  95
$$

ARZ056-057-069-241700-
SOUTHEAST ARKANSAS

CITY           SKY/WX    TMP DP  RH WIND       PRES   REMARKS
PINE BLUFF     CLOUDY    84  73  69 CALM      30.00R HX  90
STUTTGART      CLOUDY    82  73  74 SE3       30.01R HX  88
MONTICELLO     MOSUNNY   89  75  63 CALM      30.00R HX  99

$$






USA.gov is the U.S. government's official web portal to all federal, state and local government web resources and services.